Regional Weather Roundup
Issued by NWS

Home | Current Version | Previous Version | Text Only | Print | Product List | Glossary On
Versions: 1 2 3 4 5 6 7 8 9 10 11 12 13 14 15 16 17 18 19 20 21 22 23 24 25 26 27 28 29 30 31 32 33 34 35 36 37 38 39 40 41 42 43 44 45 46 47 48 49 50
000
ASUS45 KCYS 011810
RWRWY

WYOMING REGIONAL WEATHER ROUNDUP
NATIONAL WEATHER SERVICE CHEYENNE WY
1100 AM MST WED MAR 01 2017

NOTE:  "FAIR" INDICATES FEW OR NO CLOUDS BELOW 12,000 FEET
WITH NO SIGNIFICANT WEATHER AND/OR OBSTRUCTIONS TO VISIBILITY.

WYZ001-011900-
YELLOWSTONE NATIONAL PARK

CITY           SKY/WX    TMP DP  RH WIND       PRES   REMARKS
LK YELLOWSTONE   N/A     15   6  67 W8G20     30.18S WCI   4
6HR MIN TEMP:   0; 6HR MAX TEMP:  15;

W YELLOWSTONE  NOT AVBL

$$
WYZ002>013-054>058-071-098>099-011900-
NORTHERN WYOMING

CITY           SKY/WX    TMP DP  RH WIND       PRES   REMARKS
JACKSON        LGT SNOW  21  18  86 MISG      30.26S
CODY           FAIR      34   4  28 W17G29    30.09F WCI  23
GREYBULL       FAIR      34  15  46 SE14      30.13F WCI  25
6HR MIN TEMP:  20; 6HR MAX TEMP:  34;

WORLAND        FAIR      34  10  37 SE6       30.13F WCI  29
6HR MIN TEMP:  13; 6HR MAX TEMP:  34;

SHERIDAN       CLOUDY    36   7  29 SE10      30.03F WCI  28
6HR MIN TEMP:  15; 6HR MAX TEMP:  37;

BUFFALO        CLOUDY    31  13  47 SE8       30.03F WCI  23
6HR MIN TEMP:  16; 6HR MAX TEMP:  31;

GILLETTE       FAIR      35   6  29 W15       30.05F WCI  25
6HR MIN TEMP:  13; 6HR MAX TEMP:  35;

HULETT         FAIR      32  10  40 W12G20    30.07S WCI  23
NEWCASTLE      FAIR      32  10  40 NW8       30.11F WCI  25

$$
WYZ014>020-022>026-101>103-011900-
CENTRAL WYOMING

CITY           SKY/WX    TMP DP  RH WIND       PRES   REMARKS
BIG PINEY      CLOUDY     8   1  73 CALM      30.29R
6HR MIN TEMP: -11; 6HR MAX TEMP:  12;

PINEDALE       FAIR       9   5  85 E6        30.28R WCI  -1
DUBOIS         FAIR      21   9  58 NW30G44   30.08F WCI   3
LANDER         FAIR      26   4  38 NW8       30.16S WCI  18
6HR MIN TEMP:   7; 6HR MAX TEMP:  26;

RIVERTON       FAIR      22   8  55 SW9       30.16R WCI  12
6HR MIN TEMP:  14; 6HR MAX TEMP:  28;

CASPER         FAIR      25  11  55 SW22G30   30.16F WCI  10
6HR MIN TEMP:  11; 6HR MAX TEMP:  25;

DOUGLAS        FAIR      28  11  48 W14G26    30.13R WCI  17
6HR MIN TEMP:   5; 6HR MAX TEMP:  28;


$$
WYZ021-027>030-104>119-011900-
SOUTHERN WYOMING

CITY           SKY/WX    TMP DP  RH WIND       PRES   REMARKS
EVANSTON       CLOUDY    21  14  74 SW17      30.34R WCI   7
6HR MIN TEMP:  17; 6HR MAX TEMP:  21; 6HR PCP: TRACE;

FORT BRIDGER   CLOUDY    24  15  69 SW22G29   30.35S WCI   8
ROCK SPRINGS   CLOUDY    23  15  71 W26       30.30R WCI   6
6HR MIN TEMP:  16; 6HR MAX TEMP:  23; 6HR PCP: TRACE;

DIXON            N/A     24  10  55 SW17G24   30.36S WCI  11
RAWLINS        CLOUDY    21  11  65 SW23G35   30.24R WCI   5
6HR MIN TEMP:  11; 6HR MAX TEMP:  21;

SARATOGA       FAIR      21  12  68 SW25G38   30.25S HAZE    WCI   4
LARAMIE        FAIR      24   8  50 W30G38    30.13S WCI   7
6HR MIN TEMP:  12; 6HR MAX TEMP:  24;

CHEYENNE       FAIR      29   8  41 W30G43    30.13R WCI  13
6HR MIN TEMP:  19; 6HR MAX TEMP:  29;

TORRINGTON     FAIR      31  13  47 W25G36    30.16S WCI  17
6HR MIN TEMP:  16; 6HR MAX TEMP:  31;

PINE BLUFFS    FAIR      34   9  35 W36G46    30.17R WCI  19

$$



USA.gov is the U.S. government's official web portal to all federal, state and local government web resources and services.